DELTA 1 DEB, 7080

Orbit data source: Space-Track

DELTA 1 DEB, 7080 is space debris in SSO originally from a launch on Tue, 06 Nov 1973 UTC launched from the Air Force Western Test Range (AFWTR). Debris objects in space refer to the collection of defunct objects orbiting the Earth. Examples of debris include non-operational satellites, rocket bodies, and fragments generated from explosions, collisions, or faulty payload assembly.

Loading next visibility...
Identifier
7080, 1973-086BY
Orbit
SSO
Country
Flag of USUS
Related business
Manufacturer
Unknown
Mission
Spacecraft
Bus & Motor
Unknown
Mass
Unknown
Launch date (UTC)
1973-11-06 (52 years ago)
Launch vehicle
Unknown
Launch site
Air Force Western Test Range (AFWTR)
Object type
Payload
Rocket body
Debris
Shape & HBR
Unknown shape, 0.1 m
Radar Cross Section
Medium (>0.1 m² and <1 m²)

Expand to show TLE details & history
Last TLE update: 15 hours ago

TLE from 15 hours ago
0 DELTA 1 DEB
1  7080U 73086BY  26122.47686634  .00000674  00000-0  36036-2 0  9993
2  7080 101.9357 118.3154 0042297 286.2053 229.0048 12.70419835404302
Epoch: 2026-05-02T11:26Z
TLE epoch observation values (Epoch: 2026-05-02T11:26:41.251Z)
Latitude
24.60123°
Longitude
-88.22418°
Altitude
1,404.53 km
Speed
7.15 km/s
True Right ascension
20h 15m 22s
True Declination
24° 28' 56"
Sunlit
Object was in daylight at epoch
Visualization orbit readout
Latitude
Unknown
Longitude
Unknown
Altitude
Unknown
Speed
Unknown
Apparent Right ascension
Unknown
Apparent Declination
Unknown
Sunlit
N/A
Visualization observer readout
Local Sidereal Time
10:21:14
Azimuth
Unknown
Elevation
Unknown
Doppler factor
Unknown
Orbital elements
Apogee altitude
1,410.566 km
Perigee altitude
1,344.956 km
Semi-major axis
7,755.898 km
Eccentricity
0.00423
Inclination
101.9357°
RAAN
118.3154°
Arg. of periapsis
286.2053°
True anomaly
228.64024°
Mean anomaly
229.0048°
Eccentric anomaly
228.82239°
Mean motion
3.17757 °/min
Orbital period
113.29 mins
BSTAR
0.0036036
Loading maneuver chart data...
Computing Atmospheric mass density...
Loading historical data...
Loading historical data...
Loading historical data...
Loading historical data...
Loading historical data...
Loading historical data...
Loading historical data...

Documentation

Showing up to 5 results
|